Location: Jacksonville
(30.3320°N, 81.6560°W)
Time: 09:05:49
(UTC-05:00)

X-37B - Visible Passes

Search period start: 27 November 2020 00:00
Search period end: 07 December 2020 00:00
Orbit: 384 x 389 km, 45.0° (Epoch: 12 November)

Date Brightness Start Highest point End Pass type
(mag) Time Alt. Az. Time Alt. Az. Time Alt. Az.
27 Nov 3.5 19:16:48 10° NW 19:17:30 12° NNW 19:17:30 12° NNW visible
28 Nov 2.7 18:16:59 10° WNW 18:19:19 19° NNW 18:21:38 10° NNE visible
30 Nov 3.2 17:57:40 10° NW 17:59:01 12° NNW 18:00:21 10° N visible
